Regional Weather Roundup
Issued by NWS

Home | Current Version | Previous Version | Graphics & Text | Print | Product List | Glossary On
Versions: 1 2 3 4 5 6 7 8 9 10 11 12 13 14 15 16 17 18 19 20 21 22 23 24 25 26 27 28 29 30 31 32 33 34 35 36 37 38 39 40 41 42 43 44 45 46 47 48 49 50
000
ASUS43 KOAX 030002
RWRNE

WEATHER ROUNDUP FOR NEBRASKA
NATIONAL WEATHER SERVICE OMAHA NE
600 PM CST MON MAR 02 2015

NOTES: SATELLITE DATA IS BEING USED TO AUGMENT CLOUD COVER ABOVE
       12000 FEET.
       "FAIR" INDICATES FEW OR NO CLOUDS BELOW 12,000 FEET WITH NO
       SIGNIFICANT WEATHER AND/OR OBSTRUCTIONS TO VISIBILITY.

  * THESE STATIONS DO NOT REPORT WEATHER SUCH AS RAIN...SNOW OR FOG.

NEZ001>004-019>022-054>056-030100-
NEBRASKA PANHANDLE

CITY           SKY/WX    TMP DP  RH WIND       PRES   REMARKS
SCOTTSBLUFF    PTCLDY    42  26  53 SE21      29.66F
6HR MIN TEMP:  39; 6HR MAX TEMP:  47;

ALLIANCE       PTCLDY    32  23  69 SE18      29.70F WCI  20
6HR MIN TEMP:  32; 6HR MAX TEMP:  41;

CHADRON        CLOUDY    45  25  45 S8        29.67F
6HR MIN TEMP:  42; 6HR MAX TEMP:  46;

KIMBALL        CLOUDY    35  27  70 SE16      29.64F WCI  26
SIDNEY         CLOUDY    31  24  75 S16       29.69F WCI  20
6HR MIN TEMP:  31; 6HR MAX TEMP:  37;

$$

NEZ057>060-069>072-079>082-030100-
SOUTHWEST NEBRASKA

CITY           SKY/WX    TMP DP  RH WIND       PRES   REMARKS
NORTH PLATTE   CLOUDY    33  21  61 S15       29.85F WCI  23
6HR MIN TEMP:  33; 6HR MAX TEMP:  40;

IMPERIAL         N/A     31  24  75 S15       29.80F WCI  20
6HR MIN TEMP:  31; 6HR MAX TEMP:  33;

LEXINGTON      CLOUDY    34  20  56 S21G26    29.91F WCI  23
MCCOOK         CLOUDY    33  23  66 S16G23    29.88F WCI  23
6HR MIN TEMP:  33; 6HR MAX TEMP:  41;

$$

NEZ005>010-023>029-035>040-094-030100-
NORTH CENTRAL NEBRASKA

CITY           SKY/WX    TMP DP  RH WIND       PRES   REMARKS
VALENTINE      CLOUDY    40  20  44 S18G29    29.79F WCI  31
6HR MIN TEMP:  36; 6HR MAX TEMP:  41;

AINSWORTH      MOCLDY    36  19  49 S16G23    29.82F WCI  26
BROKEN BOW     CLOUDY    35  19  52 S20G33    29.90F WCI  24
6HR MIN TEMP:  35; 6HR MAX TEMP:  40;

ORD            CLOUDY    35  13  40 S18G28    29.94F WCI  24
6HR MIN TEMP:  35; 6HR MAX TEMP:  40;

$$

NEZ041-046>049-061>064-073>077-083>087-030100-
SOUTH CENTRAL NEBRASKA

CITY           SKY/WX    TMP DP  RH WIND       PRES   REMARKS
GRAND ISLAND   CLOUDY    34  15  46 S20G26    30.00F WCI  23
6HR MIN TEMP:  34; 6HR MAX TEMP:  43;

HASTINGS       CLOUDY    34  14  43 S15G22    29.98F WCI  24
6HR MIN TEMP:  34; 6HR MAX TEMP:  42;

HEBRON         CLOUDY    36  14  41 S15G22    30.06F WCI  26
KEARNEY *      CLOUDY    34  16  47 S21G26    29.96F WCI  22
$$

NEZ011>018-030>034-042>045-030100-
NORTHEAST NEBRASKA

CITY           SKY/WX    TMP DP  RH WIND       PRES   REMARKS
NORFOLK        CLOUDY    38  17  42 S17G28    30.01F WCI  28
6HR MIN TEMP:  34; 6HR MAX TEMP:  41;

BLAIR          MOCLDY    37  20  50 SE15G21   30.08F WCI  28
COLUMBUS *     MOCLDY    37  16  41 S15G22    30.05F WCI  28
FREMONT        MOCLDY    38  20  48 SE14G22   30.07F WCI  30
TEKAMAH        CLOUDY    38  21  50 S17       30.10F WCI  28
6HR MIN TEMP:  32; 6HR MAX TEMP:  41;

$$

NEZ050>053-065>068-078-088>093-030100-
SOUTHEAST NEBRASKA

CITY           SKY/WX    TMP DP  RH WIND       PRES   REMARKS
LINCOLN        MOCLDY    38  18  44 S14G28    30.09F WCI  30
6HR MIN TEMP:  38; 6HR MAX TEMP:  43;

OMAHA EPPLEY   CLOUDY    38  20  48 SE17      30.11F WCI  28
6HR MIN TEMP:  34; 6HR MAX TEMP:  42;

FALLS CITY     CLOUDY    36  18  48 SE14G21   30.14F WCI  27
6HR MIN TEMP:  36; 6HR MAX TEMP:  43;

$$

NEZ044-045-051>053-067-030100-
OMAHA AREA

CITY           SKY/WX    TMP DP  RH WIND       PRES   REMARKS
OMAHA EPPLEY   CLOUDY    38  20  48 SE17      30.11F WCI  28
6HR MIN TEMP:  34; 6HR MAX TEMP:  42;

BLAIR          MOCLDY    37  20  50 SE15G21   30.08F WCI  28
FREMONT        MOCLDY    38  20  48 SE14G22   30.07F WCI  30
OFFUTT AFB     MOCLDY    37  21  52 SE14      30.11F WCI  28
$$


USA.gov is the U.S. government's official web portal to all federal, state and local government web resources and services.